This is the latest recevied weather packets stored in our database for station/object NO9B. If no packets are shown the sender has not sent any weather packets the latest 10 day(s).
| Time | Temp. | Humidity | Pressure | Rain* | Wind** | Luminosity | Snow |
|---|---|---|---|---|---|---|---|
| 1787515175 | 24.44° C | 53% | 1017.9 hPa | 0 mm | - | 528 W/m² | - |
| 1787514872 | 23.89° C | 54% | 1018 hPa | 0 mm | - | 546 W/m² | - |
| 1787514572 | 23.89° C | 50% | 1018 hPa | 0 mm | - | 121 W/m² | - |
| 1787514269 | 24.44° C | 48% | 1018.3 hPa | 0 mm | - | 515 W/m² | - |
| 1787513968 | 24.44° C | 53% | 1018.2 hPa | 0 mm | - | 560 W/m² | - |
| 1787513664 | 23.89° C | 55% | 1018.2 hPa | 0 mm | - | 578 W/m² | - |
| 1787513359 | 23.89° C | 49% | 1018.2 hPa | 0 mm | - | 126 W/m² | - |
| 1787513056 | 25° C | 49% | 1018.2 hPa | 0 mm | - | 593 W/m² | - |
| 1787512751 | 25° C | 51% | 1018 hPa | 0 mm | - | 190 W/m² | - |
| 1787512448 | 25° C | 50% | 1018.2 hPa | 0 mm | - | 603 W/m² | - |
| 1787512143 | 24.44° C | 51% | 1018.2 hPa | 0 mm | - | 588 W/m² | - |
| 1787511838 | 24.44° C | 54% | 1018.3 hPa | 0 mm | - | 115 W/m² | - |
| 1787511537 | 24.44° C | 50% | 1018.3 hPa | 0 mm | - | 626 W/m² | - |
| 1787511236 | 23.89° C | 49% | 1018.4 hPa | 0 mm | - | 594 W/m² | - |
| 1787510936 | 23.89° C | 52% | 1018.3 hPa | 0 mm | - | 137 W/m² | - |
| 1787510631 | 24.44° C | 52% | 1018.4 hPa | 0 mm | - | 105 W/m² | - |
| 1787510327 | 23.89° C | 48% | 1018.4 hPa | 0 mm | - | 639 W/m² | - |
| 1787510023 | 24.44° C | 47% | 1018.4 hPa | 0 mm | - | 639 W/m² | - |
| 1787509718 | 23.89° C | 49% | 1018.6 hPa | 0 mm | - | 626 W/m² | - |
| 1787509415 | 23.89° C | 55% | 1018.4 hPa | 0 mm | - | 667 W/m² | - |
| 1787509110 | 23.33° C | 50% | 1018.5 hPa | 0 mm | - | 121 W/m² | - |
| 1787508805 | 23.89° C | 52% | 1018.6 hPa | 0 mm | - | 515 W/m² | - |
| 1787508500 | 24.44° C | 50% | 1018.4 hPa | 0 mm | - | 185 W/m² | - |
| 1787508197 | 24.44° C | 51% | 1018.4 hPa | 0 mm | - | 169 W/m² | - |
| 1787507892 | 24.44° C | 51% | 1018.3 hPa | 0 mm | - | 183 W/m² | - |
* Rain latest hour (hover to see other rain measurements)
** Current wind speed in m/s (hover to see current wind gust speed)